Overview Statistics Trail Chart Weather Telemetry Raw packets
 

This is the latest recevied weather packets stored in our database for station/object WD7OO. If no packets are shown the sender has not sent any weather packets the latest 10 day(s).

<< 73 74 75 76 77 78 79 >>
Time Temp. Humidity Pressure Rain* Wind** Luminosity Snow
1788102507 19.44° C 99% 1020.4 hPa 1.27 mm - 36 W/m² -
1788102206 19.44° C 99% 1020.7 hPa 1.78 mm - 33 W/m² -
1788101901 19.44° C 99% 1020.6 hPa 1.78 mm - 34 W/m² -
1788101596 19.44° C 99% 1020.6 hPa 0 mm - 37 W/m² -
1788101292 19.44° C 99% 1020.4 hPa 1.27 mm - 36 W/m² -
1788100987 19.44° C 99% 1020.5 hPa 1.27 mm - 35 W/m² -
1788100683 19.44° C 99% 1020.3 hPa 0 mm - 37 W/m² -
1788100383 19.44° C 99% 1020.4 hPa 1.78 mm - 34 W/m² -
1788100077 19.44° C 99% 1020.6 hPa 1.78 mm - 34 W/m² -
1788099772 19.44° C 99% 1020.5 hPa 1.27 mm - 30 W/m² -
1788099475 19.44° C 99% 1020.5 hPa 1.27 mm - 23 W/m² -
1788099162 19.44° C 99% 1020.7 hPa 1.78 mm - 19 W/m² -
1788098857 19.44° C 99% 1020.6 hPa 1.78 mm - 22 W/m² -
1788098552 18.89° C 99% 1020.5 hPa 0 mm - 26 W/m² -
1788098247 18.89° C 99% 1020.4 hPa 1.27 mm - 27 W/m² -
1788097942 18.89° C 99% 1020.3 hPa 1.27 mm - 26 W/m² -
1788097638 18.89° C 99% 1020.1 hPa 1.78 mm - 26 W/m² -
1788097332 18.89° C 99% 1020.3 hPa 1.78 mm - 29 W/m² -
1788097028 18.89° C 99% 1020 hPa 0 mm - 29 W/m² -
1788096724 18.89° C 99% 1020.1 hPa 0 mm - 33 W/m² -
1788096419 18.89° C 99% 1020 hPa 0 mm - 23 W/m² -
1788096115 18.89° C 99% 1020 hPa 0 mm - 18 W/m² -
1788095814 18.89° C 99% 1019.7 hPa 0 mm - 16 W/m² -
1788095509 18.89° C 99% 1019.6 hPa 0 mm - 13 W/m² -
1788095209 18.89° C 99% 1019.2 hPa 0 mm - 12 W/m² -

* Rain latest hour (hover to see other rain measurements)
** Current wind speed in m/s (hover to see current wind gust speed)